Dassault Systemes SA ROE 2010-2023 | DASTY

Current and historical return on equity (ROE) values for Dassault Systemes SA (DASTY) over the last 10 years. Return on equity can be defined as the amount of net income returned as a percentage of shareholders equity. Return on equity measures a corporation's profitability by revealing how much profit a company generates with the money shareholders have invested.
Dassault Systemes SA ROE - Return on Equity Historical Data
Date TTM Net Income Shareholder's Equity Return on Equity
2023-09-30 $0.76B $8.46B 9.28%
2023-03-31 $1.06B $8.03B 13.84%
2022-09-30 $1.00B $7.88B 13.47%
2022-03-31 $1.00B $7.39B 14.08%
2021-12-31 $0.92B $7.35B 13.14%
2021-09-30 $0.88B $7.03B 13.37%
2021-06-30 $0.78B $6.69B 12.21%
2021-03-31 $0.65B $6.77B 10.51%
2020-12-31 $0.56B $5.83B 9.39%
2020-09-30 $0.53B $6.09B 8.78%
2020-06-30 $0.57B $5.91B 9.65%
2020-03-31 $0.63B $6.03B 10.87%
2019-12-31 $0.69B $5.89B 12.14%
2019-09-30 $0.72B $5.83B 12.96%
2019-06-30 $0.72B $5.46B 13.36%
2019-03-31 $0.73B $5.55B 13.72%
2018-12-31 $0.67B $5.46B 12.94%
2018-09-30 $0.67B $5.09B 13.56%
2018-06-30 $0.65B $5.21B 13.43%
2018-03-31 $0.62B $5.01B 13.60%
2017-12-31 $0.59B $4.52B 13.49%
2017-09-30 $0.51B $4.54B 11.78%
2017-06-30 $0.51B $4.17B 12.12%
2017-03-31 $0.49B $4.18B 11.76%
2016-12-31 $0.49B $4.30B 12.20%
2016-09-30 $0.47B $4.08B 11.97%
2016-06-30 $0.46B $3.98B 12.07%
2016-03-31 $0.46B $3.84B 12.33%
2015-12-31 $0.45B $3.87B 12.11%
2015-09-30 $0.43B $3.66B 11.55%
2015-06-30 $0.40B $3.55B 10.78%
2015-03-31 $0.38B $3.68B 10.16%
2014-12-31 $0.37B $3.93B 9.87%
2014-09-30 $0.40B $3.76B 11.06%
2014-06-30 $0.43B $3.64B 12.22%
2014-03-31 $0.45B $3.63B 13.01%
2013-12-31 $0.47B $3.49B 13.99%
2013-09-30 $0.46B $3.42B 13.96%
2013-06-30 $0.44B $3.30B 14.09%
2013-03-31 $0.44B $3.29B 14.46%
2012-12-31 $0.43B $3.06B 14.96%
2012-09-30 $0.42B $2.85B 14.54%
2012-06-30 $0.42B $2.83B 14.70%
2012-03-31 $0.41B $2.86B 14.72%
2011-12-31 $0.40B $2.90B 14.94%
2011-09-30 $0.39B $2.70B 15.52%
2011-06-30 $0.36B $2.57B 15.04%
2011-03-31 $0.33B $2.49B 14.45%
2010-12-31 $0.29B $2.38B 13.30%
2010-09-30 $0.30B $2.09B 14.20%
2010-06-30 $0.28B $2.13B 13.84%
2010-03-31 $0.26B $2.16B 13.06%
2009-12-31 $0.25B $2.02B 13.02%
Sector Industry Market Cap Revenue
Computer and Technology Computer Software $56.134B $6.441B
Dassault Systemes is a worldwide recognized leader in CAD/CAM/CAE and PDM II markets. The company's mission to provide solutions to enable customersto build their digital enterprise, by defining, simulating, managing and optimizing concurrently product, manufacturing process, and resources. In this virtual space, customers create innovative, high quality, safe and affordable products. The company delivers scaleable process and design-centric solutions on both Unix and Windows NT environments.
Stock Name Country Market Cap PE Ratio
Microsoft (MSFT) United States $3197.081B 37.24
Oracle (ORCL) United States $337.818B 27.50
Salesforce (CRM) United States $263.577B 44.06
Adobe (ADBE) United States $212.993B 35.61
Intuit (INTU) United States $169.682B 52.87
Synopsys (SNPS) United States $89.579B 62.03
Cadence Design Systems (CDNS) United States $80.084B 76.24
Autodesk (ADSK) United States $46.304B 45.24
MicroStrategy (MSTR) United States $29.885B 0.00
ANSYS (ANSS) United States $28.906B 53.49
PTC (PTC) United States $21.905B 58.10
SS&C Technologies Holdings (SSNC) United States $15.290B 14.48
Manhattan Associates (MANH) United States $14.046B 74.55
Descartes Systems Group (DSGX) Canada $8.546B 74.80
Open Text (OTEX) Canada $8.205B 8.26
Trend Micro (TMICY) Japan $6.572B 47.60
Pegasystems (PEGA) United States $5.096B 45.06
CommVault Systems (CVLT) United States $4.800B 78.44
Blackbaud (BLKB) United States $4.095B 35.25
ACI Worldwide (ACIW) United States $3.735B 17.89
Progress Software (PRGS) United States $2.174B 13.82
Verint Systems (VRNT) United States $1.911B 17.81
Sapiens (SPNS) Israel $1.880B 25.64
BlackBerry (BB) Canada $1.700B 0.00
PROS Holdings (PRO) United States $1.465B 0.00
Simulations Plus (SLP) United States $0.996B 73.28
Rand Worldwide (RWWI) United States $0.652B 0.00
Magic Software Enterprises (MGIC) Israel $0.522B 11.08
American Software (AMSWA) United States $0.355B 29.72
Canaan (CAN) China $0.245B 0.00
OptimizeRx (OPRX) United States $0.236B 0.00
Rigetti Computing (RGTI) United States $0.184B 0.00
Icad Inc (ICAD) United States $0.042B 0.00
Neonode (NEON) Sweden $0.037B 0.00
NetSol Technologies (NTWK) United States $0.030B 0.00
Smith Micro Software (SMSI) United States $0.024B 0.00
Hanryu Holdings (HRYU) South Korea $0.021B 0.00
Wetouch Technology (WETH) $0.020B 0.00
GSE Systems (GVP) United States $0.011B 0.00
SAP SE (SAP) Germany $0.000B 49.97